^^
Your Local Weather - Clay, NY Station Historical Data
Daily Summary for February 27, 2017 Units:  Metric    English   Both
« Previous Day
Next Day »
Daily Weekly Monthly Yearly Custom
  High: Low: Average:
Temperature: 10.9 °C -0.4 °C 4.6 °C
Dew Point: -0.8 °C -7.8 °C -4.5 °C
Humidity: 86% 36% 53%
Wind Speed: 12.9km/h 0km/h 5.8km/h
Wind Gust: 24.1km/h - -
Wind- - WSW
Pressure: 1025.6 hPa 1018.8 hPa -
Precipitation: 0.25 mm    
Historical Graphs
 
 
Tabular Data for February 27, 2017
Time Temperature Dew Point Pressure Wind Wind Speed Wind Gust Humidity Rainfall Rate (Hourly) solar
00:04 0.4 °C -7.3 °C 1018.8 hPa SW 6.4 km/h 9.7 km/h 56% 0 mm 0 W/m2
00:10 0.4 °C -7.6 °C 1018.8 hPa SSW 6.4 km/h 9.7 km/h 55% 0 mm 0 W/m2
00:16 0.6 °C -7.4 °C 1018.8 hPa WSW 6.4 km/h 9.7 km/h 55% 0 mm 0 W/m2
00:22 0.6 °C -7.4 °C 1018.8 hPa SW 6.4 km/h 8 km/h 55% 0 mm 0 W/m2
00:28 0.8 °C -7.5 °C 1019.2 hPa SW 8 km/h 14.5 km/h 54% 0 mm 0 W/m2
00:34 0.9 °C -7.6 °C 1019.2 hPa South 9.7 km/h 9.7 km/h 53% 0 mm 0 W/m2
00:40 0.9 °C -7.6 °C 1019.2 hPa SW 8 km/h 8 km/h 53% 0 mm 0 W/m2
00:46 1 °C -7.5 °C 1019.2 hPa SW 8 km/h 19.3 km/h 53% 0 mm 0 W/m2
00:52 1.2 °C -7.4 °C 1019.2 hPa South 11.3 km/h 11.3 km/h 53% 0 mm 0 W/m2
00:58 1.1 °C -7.4 °C 1019.2 hPa SW 9.7 km/h 16.1 km/h 53% 0 mm 0 W/m2
01:04 1.1 °C -7.4 °C 1019.2 hPa SSW 9.7 km/h 9.7 km/h 53% 0 mm 0 W/m2
01:10 1.2 °C -7.4 °C 1019.2 hPa SSW 9.7 km/h 9.7 km/h 53% 0 mm 0 W/m2
01:16 1.2 °C -7.6 °C 1019.2 hPa SW 9.7 km/h 9.7 km/h 52% 0 mm 0 W/m2
01:22 1.3 °C -7.5 °C 1019.2 hPa SW 8 km/h 8 km/h 52% 0 mm 0 W/m2
01:28 1.2 °C -7.4 °C 1019.2 hPa SSW 8 km/h 9.7 km/h 53% 0 mm 0 W/m2
01:34 1.3 °C -7.5 °C 1019.2 hPa SW 8 km/h 8 km/h 52% 0 mm 0 W/m2
01:40 1.2 °C -7.3 °C 1019.2 hPa SW 6.4 km/h 6.4 km/h 53% 0 mm 0 W/m2
01:46 1.3 °C -7.3 °C 1019.2 hPa SW 8 km/h 11.3 km/h 53% 0 mm 0 W/m2
01:52 1.3 °C -7.4 °C 1019.2 hPa SSW 9.7 km/h 11.3 km/h 52% 0 mm 0 W/m2
01:58 1.3 °C -7.4 °C 1019.2 hPa SSW 8 km/h 11.3 km/h 52% 0 mm 0 W/m2
02:04 1.4 °C -7.3 °C 1019.2 hPa South 8 km/h 19.3 km/h 52% 0 mm 0 W/m2
02:10 1.5 °C -7.3 °C 1019.2 hPa SSW 8 km/h 9.7 km/h 52% 0 mm 0 W/m2
02:16 1.4 °C -7.3 °C 1019.2 hPa WSW 8 km/h 9.7 km/h 52% 0 mm 0 W/m2
02:22 1.6 °C -7.5 °C 1019.2 hPa WSW 8 km/h 9.7 km/h 51% 0 mm 0 W/m2
02:28 1.6 °C -7.3 °C 1019.2 hPa SW 8 km/h 9.7 km/h 52% 0 mm 0 W/m2
02:34 1.6 °C -7.4 °C 1019.2 hPa SSW 8 km/h 8 km/h 51% 0 mm 0 W/m2
02:40 1.6 °C -7.4 °C 1019.2 hPa South 8 km/h 8 km/h 51% 0 mm 0 W/m2
02:46 1.6 °C -7.3 °C 1019.2 hPa SSW 8 km/h 14.5 km/h 52% 0 mm 0 W/m2
02:52 1.6 °C -7.5 °C 1019.2 hPa SSW 8 km/h 14.5 km/h 51% 0 mm 0 W/m2
02:58 1.6 °C -7.2 °C 1019.2 hPa SSW 8 km/h 14.5 km/h 52% 0 mm 0 W/m2
03:04 1.6 °C -7.4 °C 1019.2 hPa SSW 8 km/h 11.3 km/h 51% 0 mm 0 W/m2
03:10 1.6 °C -7.4 °C 1019.2 hPa SW 6.4 km/h 11.3 km/h 51% 0 mm 0 W/m2
03:16 1.8 °C -7.3 °C 1019.5 hPa SW 6.4 km/h 11.3 km/h 51% 0 mm 0 W/m2
03:22 1.7 °C -7.3 °C 1019.2 hPa SSW 6.4 km/h 6.4 km/h 51% 0 mm 0 W/m2
03:28 1.9 °C -7.2 °C 1019.5 hPa SSW 8 km/h 9.7 km/h 51% 0 mm 0 W/m2
03:34 1.9 °C -7.4 °C 1019.5 hPa SSW 8 km/h 12.9 km/h 50% 0 mm 0 W/m2
03:40 1.8 °C -7.3 °C 1019.5 hPa SW 8 km/h 8 km/h 51% 0 mm 0 W/m2
03:46 1.8 °C -7.2 °C 1019.5 hPa South 8 km/h 14.5 km/h 51% 0 mm 0 W/m2
03:52 1.8 °C -7.5 °C 1019.9 hPa SW 8 km/h 11.3 km/h 50% 0 mm 0 W/m2
03:58 1.8 °C -7.2 °C 1019.9 hPa WSW 8 km/h 11.3 km/h 51% 0 mm 0 W/m2
04:04 1.8 °C -7.2 °C 1019.9 hPa SW 8 km/h 11.3 km/h 51% 0 mm 0 W/m2
04:10 1.9 °C -7.4 °C 1019.9 hPa SW 8 km/h 16.1 km/h 50% 0 mm 0 W/m2
04:16 1.8 °C -7.2 °C 1019.9 hPa West 6.4 km/h 16.1 km/h 51% 0 mm 0 W/m2
04:22 1.9 °C -7.4 °C 1019.9 hPa SSW 6.4 km/h 8 km/h 50% 0 mm 0 W/m2
04:28 2 °C -7.3 °C 1019.9 hPa SW 8 km/h 12.9 km/h 50% 0 mm 0 W/m2
04:34 2.1 °C -7.6 °C 1020.2 hPa SW 8 km/h 9.7 km/h 49% 0 mm 0 W/m2
04:40 2 °C -7.3 °C 1020.2 hPa SW 6.4 km/h 8 km/h 50% 0 mm 0 W/m2
04:46 2.1 °C -7.5 °C 1020.2 hPa SSE 8 km/h 11.3 km/h 49% 0 mm 0 W/m2
04:52 2.1 °C -7.5 °C 1020.2 hPa SW 8 km/h 9.7 km/h 49% 0 mm 0 W/m2
04:58 2.1 °C -7.6 °C 1020.5 hPa SW 8 km/h 9.7 km/h 49% 0 mm 0 W/m2
05:04 2.1 °C -7.2 °C 1020.5 hPa SSW 6.4 km/h 8 km/h 50% 0 mm 0 W/m2
05:10 2.2 °C -7.4 °C 1020.5 hPa SW 6.4 km/h 11.3 km/h 49% 0 mm 0 W/m2
05:16 2.2 °C -7.4 °C 1020.5 hPa South 8 km/h 11.3 km/h 49% 0 mm 0 W/m2
05:22 2.2 °C -7.4 °C 1020.5 hPa South 8 km/h 12.9 km/h 49% 0 mm 0 W/m2
05:28 2.3 °C -7.6 °C 1020.5 hPa South 8 km/h 12.9 km/h 48% 0 mm 0 W/m2
05:34 2.3 °C -7.6 °C 1020.5 hPa WSW 8 km/h 8 km/h 48% 0 mm 0 W/m2
05:40 2.3 °C -7.6 °C 1020.9 hPa SSW 9.7 km/h 9.7 km/h 48% 0 mm 0 W/m2
05:46 2.3 °C -7.6 °C 1020.5 hPa WNW 8 km/h 16.1 km/h 48% 0 mm 0 W/m2
05:52 2.3 °C -7.6 °C 1020.5 hPa South 9.7 km/h 9.7 km/h 48% 0 mm 0 W/m2
05:58 2.4 °C -7.5 °C 1020.5 hPa SE 8 km/h 11.3 km/h 48% 0 mm 0 W/m2
06:04 2.3 °C -7.6 °C 1020.5 hPa SW 8 km/h 14.5 km/h 48% 0 mm 0 W/m2
06:10 2.3 °C -7.8 °C 1020.9 hPa SW 8 km/h 11.3 km/h 47% 0 mm 0 W/m2
06:16 2.3 °C -7.6 °C 1020.9 hPa SW 6.4 km/h 12.9 km/h 48% 0 mm 0 W/m2
06:22 2.2 °C -7.4 °C 1020.9 hPa SSW 6.4 km/h 9.7 km/h 49% 0 mm 0 W/m2
06:28 2.3 °C -7.6 °C 1020.9 hPa SSW 8 km/h 9.7 km/h 48% 0 mm 0 W/m2
06:34 2.3 °C -7.6 °C 1020.9 hPa SSW 8 km/h 9.7 km/h 48% 0 mm 0 W/m2
06:40 2.3 °C -7.6 °C 1021.2 hPa South 6.4 km/h 9.7 km/h 48% 0 mm 0 W/m2
06:46 2.4 °C -7.4 °C 1021.2 hPa South 9.7 km/h 19.3 km/h 48% 0 mm 5 W/m2
06:52 2.5 °C -7.7 °C 1021.6 hPa SSW 9.7 km/h 12.9 km/h 47% 0 mm 9 W/m2
06:58 2.6 °C -7.7 °C 1021.6 hPa SSW 9.7 km/h 12.9 km/h 47% 0 mm 14 W/m2
07:04 2.6 °C -7.7 °C 1021.6 hPa SSW 8 km/h 12.9 km/h 47% 0 mm 18 W/m2
07:10 2.8 °C -7.7 °C 1021.9 hPa SW 9.7 km/h 9.7 km/h 46% 0 mm 21 W/m2
07:16 2.8 °C -7.4 °C 1021.9 hPa SSW 9.7 km/h 14.5 km/h 47% 0 mm 30 W/m2
07:22 2.9 °C -7.6 °C 1021.9 hPa SW 8 km/h 12.9 km/h 46% 0 mm 32 W/m2
07:28 3.1 °C -7.7 °C 1022.2 hPa SW 9.7 km/h 12.9 km/h 45% 0 mm 32 W/m2
07:34 3.1 °C -7.4 °C 1022.2 hPa WNW 9.7 km/h 12.9 km/h 46% 0 mm 67 W/m2
07:40 3.3 °C -7.6 °C 1022.6 hPa SW 9.7 km/h 16.1 km/h 45% 0 mm 98 W/m2
07:46 3.4 °C -7.2 °C 1022.6 hPa SW 9.7 km/h 16.1 km/h 46% 0 mm 49 W/m2
07:52 3.4 °C -7.2 °C 1022.6 hPa SSE 8 km/h 9.7 km/h 46% 0 mm 56 W/m2
07:58 3.4 °C -7.1 °C 1022.6 hPa WSW 8 km/h 9.7 km/h 46% 0 mm 63 W/m2
08:04 3.4 °C -7.1 °C 1022.9 hPa SW 8 km/h 8 km/h 46% 0 mm 74 W/m2
08:10 3.6 °C -6.9 °C 1022.6 hPa SSW 6.4 km/h 6.4 km/h 46% 0 mm 91 W/m2
08:16 3.7 °C -6.9 °C 1022.6 hPa WSW 6.4 km/h 8 km/h 46% 0 mm 97 W/m2
08:22 3.8 °C -6.7 °C 1022.9 hPa WSW 6.4 km/h 11.3 km/h 46% 0 mm 113 W/m2
08:28 3.9 °C -6.7 °C 1022.9 hPa SSE 6.4 km/h 11.3 km/h 46% 0 mm 116 W/m2
08:34 4.1 °C -6.8 °C 1022.9 hPa SW 6.4 km/h 6.4 km/h 45% 0 mm 109 W/m2
08:40 4.1 °C -6.8 °C 1022.9 hPa WSW 6.4 km/h 8 km/h 45% 0 mm 128 W/m2
08:46 4.2 °C -6.7 °C 1022.9 hPa WSW 6.4 km/h 11.3 km/h 45% 0 mm 163 W/m2
08:52 4.4 °C -6.5 °C 1022.9 hPa WSW 6.4 km/h 9.7 km/h 45% 0 mm 141 W/m2
08:58 4.6 °C -6.7 °C 1022.9 hPa WNW 6.4 km/h 9.7 km/h 44% 0 mm 109 W/m2
09:04 4.7 °C -6.2 °C 1022.9 hPa South 8 km/h 11.3 km/h 45% 0 mm 285 W/m2
09:10 5.2 °C -6.4 °C 1022.9 hPa SW 8 km/h 8 km/h 43% 0 mm 399 W/m2
09:16 5.7 °C -5.6 °C 1022.9 hPa SW 8 km/h 12.9 km/h 44% 0 mm 406 W/m2
09:22 6.1 °C -5.9 °C 1022.9 hPa SW 8 km/h 8 km/h 42% 0 mm 420 W/m2
09:28 6.2 °C -5.5 °C 1022.9 hPa West 8 km/h 14.5 km/h 43% 0 mm 434 W/m2
09:34 6.6 °C -4.8 °C 1023.2 hPa SW 6.4 km/h 8 km/h 44% 0 mm 450 W/m2
09:40 6.7 °C -5.3 °C 1023.2 hPa SW 6.4 km/h 20.9 km/h 42% 0 mm 469 W/m2
09:46 6.7 °C -5.3 °C 1023.2 hPa SW 9.7 km/h 20.9 km/h 42% 0 mm 478 W/m2
09:52 6.8 °C -4.9 °C 1023.6 hPa West 9.7 km/h 14.5 km/h 43% 0 mm 494 W/m2
09:58 7.2 °C -4.6 °C 1023.6 hPa West 8 km/h 14.5 km/h 43% 0 mm 508 W/m2
10:04 7.3 °C -4.8 °C 1023.6 hPa SW 6.4 km/h 16.1 km/h 42% 0 mm 515 W/m2
10:10 7.1 °C -4.9 °C 1023.6 hPa SW 9.7 km/h 11.3 km/h 42% 0 mm 529 W/m2
10:16 7.4 °C -4.4 °C 1023.6 hPa WSW 9.7 km/h 11.3 km/h 43% 0 mm 540 W/m2
10:22 7.6 °C -3.6 °C 1023.6 hPa West 8 km/h 8 km/h 45% 0 mm 552 W/m2
10:28 7.9 °C -4.2 °C 1023.6 hPa West 8 km/h 8 km/h 42% 0 mm 566 W/m2
10:34 7.9 °C -4.2 °C 1023.6 hPa WSW 8 km/h 24.1 km/h 42% 0 mm 573 W/m2
10:40 7.7 °C -4.7 °C 1023.6 hPa WSW 11.3 km/h 11.3 km/h 41% 0 mm 649 W/m2
10:46 7.9 °C -4.3 °C 1023.6 hPa WNW 9.7 km/h 12.9 km/h 42% 0 mm 587 W/m2
10:52 8.1 °C -4.1 °C 1023.6 hPa WSW 8 km/h 8 km/h 42% 0 mm 599 W/m2
10:58 8.3 °C -3.3 °C 1023.6 hPa WSW 6.4 km/h 8 km/h 44% 0 mm 605 W/m2
11:04 8.1 °C -4.4 °C 1023.6 hPa SSW 9.7 km/h 12.9 km/h 41% 0 mm 613 W/m2
11:10 7.9 °C -3.9 °C 1023.9 hPa West 12.9 km/h 12.9 km/h 43% 0 mm 622 W/m2
11:16 8.2 °C -4 °C 1023.9 hPa West 11.3 km/h 12.9 km/h 42% 0 mm 633 W/m2
11:22 8.6 °C -3.3 °C 1023.9 hPa SW 8 km/h 12.9 km/h 43% 0 mm 656 W/m2
11:28 8.6 °C -3.7 °C 1023.9 hPa SW 9.7 km/h 12.9 km/h 42% 0 mm 664 W/m2
11:34 8.8 °C -3.4 °C 1023.9 hPa West 9.7 km/h 19.3 km/h 42% 0 mm 675 W/m2
11:40 8.6 °C -4.3 °C 1023.9 hPa WSW 9.7 km/h 11.3 km/h 40% 0 mm 679 W/m2
11:46 8.9 °C -3.6 °C 1023.9 hPa SW 11.3 km/h 11.3 km/h 41% 0 mm 659 W/m2
11:52 9.1 °C -3.2 °C 1023.9 hPa SW 8 km/h 12.9 km/h 42% 0 mm 650 W/m2
11:58 8.9 °C -3.3 °C 1023.9 hPa West 9.7 km/h 12.9 km/h 42% 0 mm 656 W/m2
12:04 9.3 °C -2.9 °C 1023.9 hPa WSW 9.7 km/h 9.7 km/h 42% 0 mm 659 W/m2
12:10 9.3 °C -3.6 °C 1023.6 hPa WSW 6.4 km/h 8 km/h 40% 0 mm 673 W/m2
12:16 9.1 °C -3.2 °C 1023.2 hPa WSW 11.3 km/h 24.1 km/h 42% 0 mm 659 W/m2
12:22 9.2 °C -3.1 °C 1023.6 hPa SSW 9.7 km/h 11.3 km/h 42% 0 mm 670 W/m2
12:28 9.3 °C -4 °C 1023.2 hPa SW 9.7 km/h 11.3 km/h 39% 0 mm 671 W/m2
12:34 8.9 °C -3.9 °C 1023.2 hPa WNW 9.7 km/h 11.3 km/h 40% 0 mm 689 W/m2
12:40 9.1 °C -3.5 °C 1023.2 hPa SW 11.3 km/h 12.9 km/h 41% 0 mm 682 W/m2
12:46 9.4 °C -3.2 °C 1023.2 hPa WSW 9.7 km/h 12.9 km/h 41% 0 mm 675 W/m2
12:52 9.7 °C -3.3 °C 1023.2 hPa West 8 km/h 16.1 km/h 40% 0 mm 664 W/m2
12:58 9.4 °C -3.5 °C 1023.2 hPa SSW 9.7 km/h 16.1 km/h 40% 0 mm 689 W/m2
13:04 9.7 °C -3.3 °C 1023.2 hPa WSW 6.4 km/h 9.7 km/h 40% 0 mm 162 W/m2
13:10 9.5 °C -3.1 °C 1022.9 hPa SW 4.8 km/h 4.8 km/h 41% 0 mm 244 W/m2
13:16 9.7 °C -3.9 °C 1023.2 hPa SW 6.4 km/h 14.5 km/h 38% 0 mm 279 W/m2
13:22 9.3 °C -3.6 °C 1022.9 hPa SW 6.4 km/h 8 km/h 40% 0 mm 218 W/m2
13:28 9.2 °C -4.1 °C 1022.9 hPa West 8 km/h 17.7 km/h 39% 0 mm 330 W/m2
13:34 9.6 °C -3.7 °C 1022.9 hPa SSW 9.7 km/h 11.3 km/h 39% 0 mm 738 W/m2
13:40 9.9 °C -4.1 °C 1022.9 hPa SW 8 km/h 8 km/h 37% 0 mm 719 W/m2
13:46 10.1 °C -3.9 °C 1022.9 hPa WNW 8 km/h 9.7 km/h 37% 0 mm 763 W/m2
13:52 9.8 °C -4.2 °C 1022.9 hPa SSW 6.4 km/h 11.3 km/h 37% 0 mm 156 W/m2
13:58 9.4 °C -4.2 °C 1022.9 hPa West 8 km/h 12.9 km/h 38% 0 mm 622 W/m2
14:04 10 °C -3.7 °C 1022.6 hPa WNW 6.4 km/h 8 km/h 38% 0 mm 204 W/m2
14:10 10.3 °C -3.1 °C 1022.6 hPa West 6.4 km/h 8 km/h 39% 0 mm 248 W/m2
14:16 10 °C -3.3 °C 1022.6 hPa NW 6.4 km/h 14.5 km/h 39% 0 mm 135 W/m2
14:22 10.3 °C -3.1 °C 1022.6 hPa NW 8 km/h 12.9 km/h 39% 0 mm 218 W/m2
14:28 10.8 °C -3.7 °C 1022.2 hPa West 6.4 km/h 12.9 km/h 36% 0 mm 613 W/m2
14:34 10.6 °C -3.9 °C 1022.2 hPa West 8 km/h 11.3 km/h 36% 0 mm 538 W/m2
14:40 10.7 °C -3.8 °C 1022.2 hPa West 9.7 km/h 9.7 km/h 36% 0 mm 146 W/m2
14:46 10.4 °C -2.6 °C 1022.2 hPa West 9.7 km/h 11.3 km/h 40% 0 mm 185 W/m2
14:52 10.9 °C -3.6 °C 1022.2 hPa WNW 9.7 km/h 17.7 km/h 36% 0 mm 605 W/m2
14:58 10.8 °C -3.3 °C 1022.2 hPa SW 11.3 km/h 19.3 km/h 37% 0 mm 596 W/m2
15:04 10.4 °C -3.3 °C 1022.2 hPa WSW 11.3 km/h 11.3 km/h 38% 0 mm 181 W/m2
15:10 10 °C -3.7 °C 1022.2 hPa WSW 9.7 km/h 9.7 km/h 38% 0 mm 193 W/m2
15:16 10.1 °C -3.6 °C 1022.2 hPa WSW 8 km/h 12.9 km/h 38% 0 mm 165 W/m2
15:22 10.1 °C -3.6 °C 1022.2 hPa West 8 km/h 8 km/h 38% 0 mm 153 W/m2
15:28 10 °C -4.1 °C 1022.6 hPa West 8 km/h 14.5 km/h 37% 0 mm 125 W/m2
15:34 9.9 °C -3.4 °C 1022.6 hPa West 6.4 km/h 8 km/h 39% 0 mm 98 W/m2
15:40 9.9 °C -3.8 °C 1022.6 hPa WNW 6.4 km/h 6.4 km/h 38% 0 mm 113 W/m2
15:46 9.9 °C -3.8 °C 1022.6 hPa West 6.4 km/h 8 km/h 38% 0 mm 135 W/m2
15:52 10 °C -3.3 °C 1022.6 hPa West 4.8 km/h 4.8 km/h 39% 0 mm 114 W/m2
15:58 9.9 °C -3.1 °C 1022.6 hPa West 3.2 km/h 4.8 km/h 40% 0 mm 77 W/m2
16:04 9.6 °C -1.8 °C 1022.6 hPa NNW 3.2 km/h 4.8 km/h 45% 0 mm 102 W/m2
16:10 9.2 °C -2.2 °C 1022.9 hPa NW 3.2 km/h 6.4 km/h 45% 0 mm 81 W/m2
16:16 8.9 °C -2.1 °C 1022.9 hPa NW 3.2 km/h 6.4 km/h 46% 0 mm 176 W/m2
16:22 9.1 °C -1.7 °C 1022.9 hPa NW 3.2 km/h 3.2 km/h 47% 0 mm 269 W/m2
16:28 9.2 °C -1.6 °C 1023.2 hPa NW 1.6 km/h 6.4 km/h 47% 0 mm 84 W/m2
16:34 8.9 °C -1.8 °C 1023.2 hPa NNW 3.2 km/h 6.4 km/h 47% 0 mm 109 W/m2
16:40 8.8 °C -1.7 °C 1023.2 hPa NW 4.8 km/h 4.8 km/h 48% 0 mm 79 W/m2
16:46 8.6 °C -1.8 °C 1023.2 hPa NW 3.2 km/h 4.8 km/h 48% 0 mm 58 W/m2
16:52 8.2 °C -1.9 °C 1023.6 hPa WSW 3.2 km/h 4.8 km/h 49% 0 mm 47 W/m2
16:58 8 °C -1.6 °C 1023.6 hPa NNW 3.2 km/h 4.8 km/h 51% 0 mm 47 W/m2
17:04 7.9 °C -1.4 °C 1023.6 hPa NNW 3.2 km/h 4.8 km/h 52% 0 mm 49 W/m2
17:10 7.8 °C -1.2 °C 1023.9 hPa NNW 3.2 km/h 3.2 km/h 53% 0 mm 44 W/m2
17:16 7.7 °C -1.3 °C 1023.9 hPa NW 1.6 km/h 6.4 km/h 53% 0 mm 44 W/m2
17:22 7.6 °C -1.2 °C 1023.9 hPa NW 3.2 km/h 8 km/h 54% 0 mm 39 W/m2
17:28 7.4 °C -1.3 °C 1023.9 hPa NW 4.8 km/h 8 km/h 54% 0 mm 28 W/m2
17:34 7.1 °C -1.1 °C 1023.9 hPa North 4.8 km/h 4.8 km/h 56% 0 mm 19 W/m2
17:40 6.8 °C -1.2 °C 1023.9 hPa NNW 4.8 km/h 6.4 km/h 57% 0 mm 12 W/m2
17:46 6.5 °C -0.9 °C 1024.3 hPa NW 3.2 km/h 6.4 km/h 59% 0 mm 9 W/m2
17:52 6.1 °C -1.3 °C 1024.3 hPa NW 1.6 km/h 6.4 km/h 59% 0 mm 5 W/m2
17:58 5.9 °C -1.4 °C 1024.3 hPa NNW 3.2 km/h 6.4 km/h 59% 0 mm 0 W/m2
18:04 5.7 °C -1.5 °C 1024.3 hPa NNW 3.2 km/h 3.2 km/h 60% 0 mm 0 W/m2
18:10 5.4 °C -1.5 °C 1024.3 hPa NNW 1.6 km/h 1.6 km/h 61% 0 mm 0 W/m2
18:16 5.2 °C -1.7 °C 1024.3 hPa NNW 1.6 km/h 3.2 km/h 61% 0 mm 0 W/m2
18:22 4.9 °C -1.9 °C 1024.6 hPa Calm     61% 0 mm 0 W/m2
18:28 4.8 °C -1.9 °C 1024.6 hPa Calm     62% 0 mm 0 W/m2
18:34 4.5 °C -1.9 °C 1024.6 hPa Calm     63% 0 mm 0 W/m2
18:40 4.2 °C -2.1 °C 1024.6 hPa Calm     64% 0 mm 0 W/m2
18:46 3.8 °C -1.9 °C 1024.6 hPa Calm     66% 0 mm 0 W/m2
18:52 3.7 °C -2.1 °C 1024.9 hPa Calm     66% 0 mm 0 W/m2
18:58 3.4 °C -2.2 °C 1024.9 hPa Calm     67% 0 mm 0 W/m2
19:04 3.1 °C -2.2 °C 1024.9 hPa Calm     68% 0 mm 0 W/m2
19:10 2.9 °C -2.4 °C 1024.9 hPa Calm     68% 0 mm 0 W/m2
19:16 2.8 °C -2.3 °C 1024.9 hPa Calm     69% 0 mm 0 W/m2
19:22 2.6 °C -2.4 °C 1024.9 hPa Calm     70% 0 mm 0 W/m2
19:28 2.4 °C -2.6 °C 1024.9 hPa Calm     70% 0 mm 0 W/m2
19:34 2.3 °C -2.3 °C 1024.9 hPa Calm     72% 0 mm 0 W/m2
19:40 2.1 °C -2.4 °C 1024.9 hPa Calm     72% 0 mm 0 W/m2
19:46 1.9 °C -2.3 °C 1024.9 hPa Calm     74% 0 mm 0 W/m2
19:52 1.9 °C -2.3 °C 1024.9 hPa Calm   3.2 km/h 74% 0 mm 0 W/m2
19:58 2.1 °C -1.9 °C 1024.9 hPa Calm   3.2 km/h 75% 0 mm 0 W/m2
20:04 2.1 °C -1.9 °C 1024.9 hPa Calm     75% 0 mm 0 W/m2
20:10 2 °C -1.9 °C 1024.9 hPa Calm     75% 0 mm 0 W/m2
20:16 1.9 °C -2 °C 1024.9 hPa Calm     75% 0 mm 0 W/m2
20:22 2 °C -1.9 °C 1024.9 hPa Calm     75% 0 mm 0 W/m2
20:28 2 °C -1.9 °C 1024.9 hPa Calm     75% 0 mm 0 W/m2
20:34 2 °C -1.9 °C 1024.9 hPa Calm     75% 0 mm 0 W/m2
20:40 2 °C -1.9 °C 1024.9 hPa Calm     75% 0 mm 0 W/m2
20:46 2 °C -1.9 °C 1025.3 hPa Calm     75% 0 mm 0 W/m2
20:52 2 °C -1.9 °C 1025.3 hPa Calm     75% 0 mm 0 W/m2
20:58 2.1 °C -1.7 °C 1025.3 hPa Calm     76% 0 mm 0 W/m2
21:04 2.1 °C -1.7 °C 1025.3 hPa Calm     76% 0 mm 0 W/m2
21:10 2.1 °C -1.7 °C 1025.3 hPa Calm     76% 0 mm 0 W/m2
21:16 2.2 °C -1.4 °C 1025.3 hPa Calm     77% 0 mm 0 W/m2
21:22 2.2 °C -1.2 °C 1025.6 hPa Calm     78% 0 mm 0 W/m2
21:28 2.3 °C -1.2 °C 1025.6 hPa Calm     78% 0 mm 0 W/m2
21:34 2.3 °C -1 °C 1025.6 hPa Calm     79% 0 mm 0 W/m2
21:40 2.3 °C -1.1 °C 1025.6 hPa Calm     78% 0 mm 0 W/m2
21:46 2.3 °C -0.9 °C 1025.6 hPa Calm     79% 0 mm 0 W/m2
21:52 2.4 °C -1.1 °C 1025.6 hPa Calm     78% 0 mm 0 W/m2
21:58 2.3 °C -1.3 °C 1025.6 hPa Calm     77% 0 mm 0 W/m2
22:04 2.4 °C -1.2 °C 1025.3 hPa Calm     77% 0 mm 0 W/m2
22:10 2.4 °C -1 °C 1025.3 hPa Calm     78% 0 mm 0 W/m2
22:16 2.4 °C -0.8 °C 1025.3 hPa Calm     79% 0 mm 0 W/m2
22:22 2.4 °C -1.1 °C 1025.3 hPa Calm     78% 0 mm 0 W/m2
22:28 2.3 °C -1.2 °C 1025.3 hPa Calm     78% 0 mm 0 W/m2
22:34 2.1 °C -1.4 °C 1025.3 hPa Calm     78% 0 mm 0 W/m2
22:40 1.9 °C -1.6 °C 1025.3 hPa Calm     78% 0 mm 0 W/m2
22:46 1.8 °C -1.7 °C 1025.3 hPa Calm     78% 0 mm 0 W/m2
22:52 1.6 °C -1.7 °C 1025.3 hPa Calm     79% 0 mm 0 W/m2
22:58 1.4 °C -1.6 °C 1025.3 hPa Calm     80% 0 mm 0 W/m2
23:04 1.3 °C -1.6 °C 1025.3 hPa Calm     81% 0 mm 0 W/m2
23:10 1 °C -1.7 °C 1025.3 hPa Calm     82% 0 mm 0 W/m2
23:16 0.8 °C -1.7 °C 1025.3 hPa Calm     83% 0 mm 0 W/m2
23:22 0.7 °C -1.7 °C 1025.3 hPa Calm     84% 0 mm 0 W/m2
23:28 0.6 °C -1.8 °C 1025.3 hPa Calm     84% 0 mm 0 W/m2
23:34 0.4 °C -1.8 °C 1025.3 hPa Calm     85% 0 mm 0 W/m2
23:40 0.2 °C -2.1 °C 1025.3 hPa Calm     85% 0 mm 0 W/m2
23:46 0.1 °C -2 °C 1025.3 hPa Calm     86% 0 mm 0 W/m2
23:52 -0.2 °C -2.2 °C 1025.3 hPa Calm     86% 0 mm 0 W/m2
23:58 -0.4 °C -2.5 °C 1025.3 hPa Calm     86% 0 mm 0 W/m2
Country Meadow, Clay, NY, USA
Compliments of Weather Underground - 2 mb